Location: Zwardon
(49.5170°N, 18.9830°E)
Time: 02:17:03
(UTC+01:00)

Envisat - Visible Passes

Search period start: 10 December 2022 00:00
Search period end: 20 December 2022 00:00
Orbit: 763 x 765 km, 98.2° (Epoch: 09 December)

Date Brightness Start Highest point End Pass type
(mag) Time Alt. Az. Time Alt. Az. Time Alt. Az.
10 Dec 4.8 04:19:09 10° NNE 04:20:43 20° N 04:20:43 20° N visible
10 Dec 4.8 05:59:48 10° NNW 06:00:53 13° NNW 06:00:53 13° NNW visible
11 Dec 5.4 03:42:14 10° NNE 03:43:10 15° NNE 03:43:10 15° NNE visible
11 Dec 4.7 05:21:47 10° N 05:23:20 17° NNW 05:23:20 17° NNW visible
11 Dec 6.1 16:43:56 10° WSW 16:45:47 12° W 16:47:39 10° WNW visible
12 Dec 4.8 04:44:19 10° N 04:45:48 19° N 04:45:48 19° N visible
13 Dec 5.1 04:07:11 10° NNE 04:08:16 17° NNE 04:08:16 17° NNE visible
13 Dec 4.8 05:47:24 10° NNW 05:48:27 13° NNW 05:48:27 13° NNW visible
14 Dec 5.7 03:30:21 10° NNE 03:30:44 12° NNE 03:30:44 12° NNE visible
14 Dec 4.8 05:09:37 10° N 05:10:55 17° NNW 05:10:55 17° NNW visible
14 Dec 5.8 16:30:45 10° WSW 16:33:39 15° W 16:36:33 10° NW visible
15 Dec 5.0 04:32:16 10° N 04:33:24 17° N 04:33:24 17° N visible
16 Dec 5.4 03:55:14 10° NNE 03:55:53 14° NNE 03:55:53 14° NNE visible
16 Dec 4.9 05:35:07 10° NNW 05:36:03 14° NNW 05:36:03 14° NNW visible
17 Dec 4.9 04:57:30 10° N 04:58:33 16° N 04:58:33 16° N visible
17 Dec 5.7 16:17:58 10° SW 16:21:31 19° W 16:25:06 10° NW visible
18 Dec 5.2 04:20:15 10° N 04:21:02 15° N 04:21:02 15° N visible
18 Dec 5.0 06:00:59 10° NNW 06:01:13 11° NNW 06:01:13 11° NNW visible
19 Dec 5.6 03:43:18 10° NNE 03:43:32 11° NNE 03:43:32 11° NNE visible
19 Dec 5.0 05:22:54 10° N 05:23:43 14° NNW 05:23:43 14° NNW visible
19 Dec 6.1 16:45:20 10° WSW 16:46:55 11° W 16:48:29 10° WNW visible
